Wetterdaten: Donnerstag, 20.08.2015
Datum Zeit Auen-Temp. Temp gefhlt Luftfeuchte Luftdruck Regen Wind Richtung Richtung Taupunkt Windben
20.08.2015 00:00 10,6 C 10,4 C 88 % 1015,7 hPa 0,0 mm 0,0 km/h (0 Bft) W 270 8,7 C 0,0 km/h (0 Bft)
20.08.2015 00:05 10,5 C 10,3 C 88 % 1015,7 hPa 0,0 mm 0,0 km/h (0 Bft) W 270 8,6 C 0,0 km/h (0 Bft)
20.08.2015 00:10 10,5 C 10,3 C 89 % 1015,7 hPa 0,0 mm 0,0 km/h (0 Bft) W-SW 247 8,8 C 0,0 km/h (0 Bft)
20.08.2015 00:15 10,4 C 10,2 C 89 % 1016,1 hPa 0,0 mm 0,3 km/h (0 Bft) W-NW 292 8,7 C 0,0 km/h (0 Bft)
20.08.2015 00:20 10,2 C 10,0 C 89 % 1016,1 hPa 0,0 mm 0,5 km/h (0 Bft) SW 225 8,5 C 3,9 km/h (1 Bft)
20.08.2015 00:25 10,2 C 10,0 C 89 % 1016,1 hPa 0,0 mm 0,8 km/h (0 Bft) S-SO 157 8,5 C 0,0 km/h (0 Bft)
20.08.2015 00:30 10,1 C 9,9 C 89 % 1016,1 hPa 0,0 mm 1,0 km/h (0 Bft) W-NW 292 8,4 C 5,7 km/h (1 Bft)
20.08.2015 00:35 10,1 C 9,9 C 89 % 1015,9 hPa 0,0 mm 0,8 km/h (0 Bft) S-SO 157 8,4 C 0,0 km/h (0 Bft)
20.08.2015 00:40 10,0 C 9,8 C 89 % 1015,9 hPa 0,0 mm 0,5 km/h (0 Bft) SO 135 8,3 C 0,0 km/h (0 Bft)
20.08.2015 00:45 10,0 C 9,8 C 89 % 1015,9 hPa 0,0 mm 0,3 km/h (0 Bft) SW 225 8,3 C 0,0 km/h (0 Bft)
20.08.2015 00:50 10,0 C 9,9 C 89 % 1015,9 hPa 0,0 mm 0,5 km/h (0 Bft) W 270 8,3 C 6,0 km/h (2 Bft)
20.08.2015 00:55 10,1 C 9,9 C 89 % 1015,9 hPa 0,0 mm 0,8 km/h (0 Bft) SW 225 8,4 C 4,7 km/h (1 Bft)
20.08.2015 01:00 10,1 C 9,9 C 89 % 1015,9 hPa 0,0 mm 0,3 km/h (0 Bft) O 90 8,4 C 0,0 km/h (0 Bft)
20.08.2015 01:05 10,1 C 9,9 C 89 % 1015,9 hPa 0,0 mm 0,3 km/h (0 Bft) O-SO 112 8,4 C 0,0 km/h (0 Bft)
20.08.2015 01:10 10,0 C 9,8 C 90 % 1015,9 hPa 0,0 mm 0,0 km/h (0 Bft) O-SO 112 8,4 C 0,0 km/h (0 Bft)
20.08.2015 01:15 9,9 C 9,7 C 90 % 1015,8 hPa 0,0 mm 0,0 km/h (0 Bft) SO 135 8,3 C 0,0 km/h (0 Bft)
20.08.2015 01:20 9,8 C 9,6 C 90 % 1015,8 hPa 0,0 mm 0,8 km/h (0 Bft) W 270 8,2 C 9,1 km/h (2 Bft)
20.08.2015 01:25 10,0 C 9,8 C 90 % 1015,8 hPa 0,0 mm 1,8 km/h (1 Bft) W-SW 247 8,4 C 4,9 km/h (1 Bft)
20.08.2015 01:30 10,1 C 9,9 C 90 % 1015,8 hPa 0,0 mm 2,8 km/h (1 Bft) W 270 8,5 C 2,6 km/h (1 Bft)
20.08.2015 01:35 10,1 C 10,0 C 90 % 1015,9 hPa 0,0 mm 1,6 km/h (1 Bft) O-NO 67 8,5 C 0,0 km/h (0 Bft)
20.08.2015 01:40 10,2 C 10,1 C 90 % 1015,9 hPa 0,0 mm 2,3 km/h (1 Bft) SW 225 8,6 C 8,5 km/h (2 Bft)
20.08.2015 01:45 10,3 C 10,2 C 90 % 1015,9 hPa 0,0 mm 3,6 km/h (1 Bft) W-SW 247 8,7 C 3,1 km/h (1 Bft)
20.08.2015 01:50 10,3 C 10,2 C 90 % 1015,9 hPa 0,0 mm 2,6 km/h (1 Bft) S-SO 157 8,7 C 10,9 km/h (2 Bft)
20.08.2015 01:55 10,3 C 10,2 C 90 % 1015,9 hPa 0,0 mm 0,5 km/h (0 Bft) S 180 8,7 C 0,0 km/h (0 Bft)
20.08.2015 02:00 10,3 C 10,3 C 87 % 1015,9 hPa 0,0 mm 0,0 km/h (0 Bft) O-SO 112 8,2 C 0,0 km/h (0 Bft)
20.08.2015 02:05 10,3 C 10,3 C 87 % 1015,9 hPa 0,0 mm 0,0 km/h (0 Bft) O-SO 112 8,2 C 0,0 km/h (0 Bft)
20.08.2015 02:10 10,4 C 10,3 C 90 % 1015,9 hPa 0,0 mm 0,0 km/h (0 Bft) S-SW 202 8,8 C 0,0 km/h (0 Bft)
20.08.2015 02:15 10,4 C 10,4 C 87 % 1016,2 hPa 0,0 mm 0,0 km/h (0 Bft) SW 225 8,3 C 0,0 km/h (0 Bft)
20.08.2015 02:20 10,4 C 10,3 C 91 % 1016,2 hPa 0,0 mm 2,1 km/h (1 Bft) SW 225 9,0 C 8,0 km/h (2 Bft)
20.08.2015 02:25 10,4 C 10,4 C 87 % 1016,2 hPa 0,0 mm 4,1 km/h (1 Bft) SO 135 8,3 C 12,9 km/h (3 Bft)
20.08.2015 02:30 10,5 C 10,4 C 90 % 1016,2 hPa 0,0 mm 7,0 km/h (2 Bft) W-SW 247 8,9 C 9,3 km/h (2 Bft)
20.08.2015 02:35 10,5 C 10,4 C 90 % 1016,0 hPa 0,0 mm 7,5 km/h (2 Bft) W-SW 247 8,9 C 12,2 km/h (2 Bft)
20.08.2015 02:40 10,6 C 10,6 C 87 % 1016,0 hPa 0,0 mm 7,5 km/h (2 Bft) S 180 8,5 C 13,2 km/h (3 Bft)
20.08.2015 02:45 10,7 C 10,6 C 90 % 1016,0 hPa 0,0 mm 7,5 km/h (2 Bft) SW 225 9,1 C 6,0 km/h (2 Bft)
20.08.2015 02:50 10,9 C 10,8 C 90 % 1016,0 hPa 0,0 mm 8,5 km/h (2 Bft) S-SO 157 9,3 C 14,8 km/h (3 Bft)
20.08.2015 02:55 10,9 C 10,7 C 90 % 1015,9 hPa 0,0 mm 9,3 km/h (2 Bft) SW 225 9,3 C 8,5 km/h (2 Bft)
20.08.2015 03:00 10,9 C 10,8 C 89 % 1015,9 hPa 0,0 mm 8,0 km/h (2 Bft) SW 225 9,2 C 12,2 km/h (2 Bft)
20.08.2015 03:05 10,9 C 10,8 C 89 % 1015,9 hPa 0,0 mm 8,3 km/h (2 Bft) S-SW 202 9,2 C 10,1 km/h (2 Bft)
20.08.2015 03:10 10,7 C 10,7 C 89 % 1015,9 hPa 0,0 mm 6,7 km/h (2 Bft) S 180 9,0 C 4,9 km/h (1 Bft)
20.08.2015 03:15 10,7 C 10,7 C 89 % 1015,9 hPa 0,0 mm 5,7 km/h (1 Bft) S 180 9,0 C 9,8 km/h (2 Bft)
20.08.2015 03:20 10,5 C 10,5 C 88 % 1015,9 hPa 0,0 mm 4,4 km/h (1 Bft) W-SW 247 8,6 C 10,1 km/h (2 Bft)
20.08.2015 03:25 10,5 C 10,4 C 88 % 1015,9 hPa 0,0 mm 4,1 km/h (1 Bft) S-SW 202 8,6 C 10,9 km/h (2 Bft)
20.08.2015 03:30 10,5 C 10,4 C 88 % 1015,9 hPa 0,0 mm 7,0 km/h (2 Bft) SW 225 8,6 C 9,3 km/h (2 Bft)
20.08.2015 03:35 10,5 C 10,4 C 88 % 1015,8 hPa 0,0 mm 5,7 km/h (1 Bft) NO 45 8,6 C 0,0 km/h (0 Bft)
20.08.2015 03:40 10,2 C 10,1 C 88 % 1015,8 hPa 0,0 mm 2,1 km/h (1 Bft) W-SW 247 8,3 C 4,1 km/h (1 Bft)
20.08.2015 03:45 10,2 C 10,1 C 88 % 1015,8 hPa 0,0 mm 0,5 km/h (0 Bft) SO 135 8,3 C 0,0 km/h (0 Bft)
20.08.2015 03:50 10,1 C 10,0 C 88 % 1015,8 hPa 0,0 mm 0,5 km/h (0 Bft) SO 135 8,2 C 0,0 km/h (0 Bft)
20.08.2015 03:55 10,0 C 9,9 C 88 % 1015,8 hPa 0,0 mm 0,0 km/h (0 Bft) SO 135 8,1 C 0,0 km/h (0 Bft)
20.08.2015 04:00 10,0 C 9,9 C 88 % 1015,8 hPa 0,0 mm 0,3 km/h (0 Bft) O-SO 112 8,1 C 0,0 km/h (0 Bft)
20.08.2015 04:05 10,1 C 9,9 C 89 % 1015,8 hPa 0,0 mm 0,3 km/h (0 Bft) N-NO 22 8,4 C 0,0 km/h (0 Bft)
20.08.2015 04:10 10,0 C 9,9 C 89 % 1015,8 hPa 0,0 mm 0,3 km/h (0 Bft) SW 225 8,3 C 4,9 km/h (1 Bft)
20.08.2015 04:15 10,1 C 9,9 C 89 % 1015,7 hPa 0,0 mm 0,5 km/h (0 Bft) S 180 8,4 C 0,0 km/h (0 Bft)
20.08.2015 04:20 10,0 C 9,9 C 89 % 1015,7 hPa 0,0 mm 0,5 km/h (0 Bft) S 180 8,3 C 0,0 km/h (0 Bft)
20.08.2015 04:25 9,9 C 9,7 C 89 % 1015,7 hPa 0,0 mm 0,0 km/h (0 Bft) S 180 8,2 C 0,0 km/h (0 Bft)
20.08.2015 04:30 9,9 C 9,7 C 89 % 1015,7 hPa 0,0 mm 1,6 km/h (1 Bft) S-SW 202 8,2 C 4,7 km/h (1 Bft)
20.08.2015 04:35 9,8 C 9,7 C 89 % 1015,6 hPa 0,0 mm 2,3 km/h (1 Bft) S-SW 202 8,1 C 5,4 km/h (1 Bft)
20.08.2015 04:40 9,9 C 9,8 C 89 % 1015,6 hPa 0,0 mm 3,4 km/h (1 Bft) SW 225 8,2 C 10,4 km/h (2 Bft)
20.08.2015 04:45 10,1 C 9,9 C 89 % 1015,6 hPa 0,0 mm 4,7 km/h (1 Bft) SW 225 8,4 C 4,4 km/h (1 Bft)
20.08.2015 04:50 9,9 C 9,8 C 89 % 1015,6 hPa 0,0 mm 2,8 km/h (1 Bft) S-SO 157 8,2 C 0,0 km/h (0 Bft)
20.08.2015 04:55 9,8 C 9,7 C 89 % 1015,5 hPa 0,0 mm 0,8 km/h (0 Bft) S 180 8,1 C 5,2 km/h (1 Bft)
20.08.2015 05:00 9,9 C 9,8 C 89 % 1015,5 hPa 0,0 mm 2,1 km/h (1 Bft) S-SO 157 8,2 C 0,0 km/h (0 Bft)
20.08.2015 05:05 9,8 C 9,7 C 89 % 1015,5 hPa 0,0 mm 2,1 km/h (1 Bft) S 180 8,1 C 0,0 km/h (0 Bft)
20.08.2015 05:10 9,8 C 9,7 C 89 % 1015,5 hPa 0,0 mm 0,0 km/h (0 Bft) SO 135 8,1 C 0,0 km/h (0 Bft)
20.08.2015 05:15 9,9 C 9,7 C 89 % 1015,6 hPa 0,0 mm 0,0 km/h (0 Bft) SO 135 8,2 C 0,0 km/h (0 Bft)
20.08.2015 05:20 9,8 C 9,6 C 90 % 1015,6 hPa 0,0 mm 0,0 km/h (0 Bft) O-SO 112 8,2 C 0,0 km/h (0 Bft)
20.08.2015 05:25 9,8 C 9,6 C 90 % 1015,6 hPa 0,0 mm 0,0 km/h (0 Bft) SO 135 8,2 C 0,0 km/h (0 Bft)
20.08.2015 05:30 9,7 C 9,6 C 90 % 1015,6 hPa 0,0 mm 0,0 km/h (0 Bft) SO 135 8,1 C 0,0 km/h (0 Bft)
20.08.2015 05:35 9,7 C 9,5 C 90 % 1015,6 hPa 0,0 mm 0,5 km/h (0 Bft) S 180 8,1 C 0,0 km/h (0 Bft)
20.08.2015 05:40 9,7 C 9,5 C 90 % 1015,6 hPa 0,0 mm 0,8 km/h (0 Bft) S 180 8,1 C 0,0 km/h (0 Bft)
20.08.2015 05:41 9,6 C 9,5 C 90 % 1015,6 hPa 0,0 mm 0,3 km/h (0 Bft) S 180 8,0 C 0,0 km/h (0 Bft)
20.08.2015 05:46 9,6 C 9,4 C 90 % 1015,6 hPa 0,0 mm 0,0 km/h (0 Bft) W 270 8,0 C 0,0 km/h (0 Bft)
20.08.2015 05:50 9,6 C 9,4 C 90 % 1015,6 hPa 0,0 mm 0,0 km/h (0 Bft) W 270 8,0 C 0,0 km/h (0 Bft)
20.08.2015 05:55 9,5 C 9,4 C 90 % 1015,7 hPa 0,0 mm 0,0 km/h (0 Bft) W 270 7,9 C 0,0 km/h (0 Bft)
20.08.2015 06:00 9,6 C 9,4 C 90 % 1015,7 hPa 0,0 mm 0,5 km/h (0 Bft) SO 135 8,0 C 0,0 km/h (0 Bft)
20.08.2015 06:05 9,7 C 9,5 C 90 % 1015,7 hPa 0,0 mm 1,3 km/h (1 Bft) SW 225 8,1 C 5,4 km/h (1 Bft)
20.08.2015 06:10 9,7 C 9,6 C 90 % 1015,7 hPa 0,0 mm 1,6 km/h (1 Bft) SW 225 8,1 C 0,0 km/h (0 Bft)
20.08.2015 06:15 9,8 C 9,6 C 90 % 1015,8 hPa 0,0 mm 1,8 km/h (1 Bft) SW 225 8,2 C 5,2 km/h (1 Bft)
20.08.2015 06:20 9,8 C 9,6 C 90 % 1015,8 hPa 0,0 mm 0,5 km/h (0 Bft) S 180 8,2 C 0,0 km/h (0 Bft)
20.08.2015 06:25 9,7 C 9,6 C 90 % 1015,8 hPa 0,0 mm 0,0 km/h (0 Bft) S 180 8,1 C 0,0 km/h (0 Bft)
20.08.2015 06:30 9,7 C 9,5 C 90 % 1015,8 hPa 0,0 mm 0,0 km/h (0 Bft) W 270 8,1 C 0,0 km/h (0 Bft)
20.08.2015 06:35 9,7 C 9,5 C 90 % 1015,9 hPa 0,0 mm 0,5 km/h (0 Bft) S-SW 202 8,1 C 2,6 km/h (1 Bft)
20.08.2015 06:40 9,8 C 9,6 C 90 % 1015,9 hPa 0,0 mm 1,0 km/h (0 Bft) W 270 8,2 C 0,0 km/h (0 Bft)
20.08.2015 06:45 9,9 C 9,7 C 90 % 1015,9 hPa 0,0 mm 1,6 km/h (1 Bft) S-SW 202 8,3 C 0,0 km/h (0 Bft)
20.08.2015 06:50 10,0 C 9,8 C 90 % 1015,9 hPa 0,0 mm 2,1 km/h (1 Bft) W 270 8,4 C 5,2 km/h (1 Bft)
20.08.2015 06:55 10,0 C 9,8 C 90 % 1015,8 hPa 0,0 mm 1,6 km/h (1 Bft) W-SW 247 8,4 C 0,0 km/h (0 Bft)
20.08.2015 07:00 10,0 C 9,9 C 90 % 1015,8 hPa 0,0 mm 1,0 km/h (0 Bft) W-SW 247 8,4 C 3,4 km/h (1 Bft)
20.08.2015 07:05 10,1 C 10,0 C 90 % 1015,8 hPa 0,0 mm 1,3 km/h (1 Bft) S 180 8,5 C 0,0 km/h (0 Bft)
20.08.2015 07:10 10,2 C 10,1 C 90 % 1015,8 hPa 0,0 mm 0,8 km/h (0 Bft) O-SO 112 8,6 C 0,0 km/h (0 Bft)
20.08.2015 07:15 10,2 C 10,2 C 87 % 1016,2 hPa 0,0 mm 0,0 km/h (0 Bft) O-SO 112 8,1 C 0,0 km/h (0 Bft)
20.08.2015 07:20 10,2 C 10,3 C 87 % 1016,2 hPa 0,0 mm 0,0 km/h (0 Bft) O-NO 67 8,1 C 0,0 km/h (0 Bft)
20.08.2015 07:25 10,3 C 10,4 C 87 % 1016,2 hPa 0,0 mm 0,0 km/h (0 Bft) NO 45 8,2 C 0,0 km/h (0 Bft)
20.08.2015 07:30 10,4 C 10,5 C 87 % 1016,2 hPa 0,0 mm 0,0 km/h (0 Bft) NW 315 8,3 C 0,0 km/h (0 Bft)
20.08.2015 07:35 10,4 C 10,6 C 87 % 1016,2 hPa 0,0 mm 0,0 km/h (0 Bft) N-NO 22 8,3 C 0,0 km/h (0 Bft)
20.08.2015 07:40 10,5 C 10,8 C 87 % 1016,2 hPa 0,0 mm 0,0 km/h (0 Bft) NW 315 8,4 C 0,0 km/h (0 Bft)
20.08.2015 07:45 10,6 C 10,9 C 88 % 1016,2 hPa 0,0 mm 0,0 km/h (0 Bft) NW 315 8,7 C 0,0 km/h (0 Bft)
20.08.2015 07:50 10,7 C 11,1 C 88 % 1016,2 hPa 0,0 mm 0,0 km/h (0 Bft) NW 315 8,8 C 0,0 km/h (0 Bft)
20.08.2015 07:55 10,8 C 11,2 C 88 % 1016,4 hPa 0,0 mm 0,0 km/h (0 Bft) NW 315 8,9 C 0,0 km/h (0 Bft)
20.08.2015 08:00 11,0 C 11,5 C 87 % 1016,4 hPa 0,0 mm 0,0 km/h (0 Bft) NW 315 8,9 C 0,0 km/h (0 Bft)
20.08.2015 08:05 11,1 C 11,6 C 87 % 1016,4 hPa 0,0 mm 0,0 km/h (0 Bft) N-NO 22 9,0 C 0,0 km/h (0 Bft)
20.08.2015 08:10 11,2 C 11,9 C 87 % 1016,4 hPa 0,0 mm 0,3 km/h (0 Bft) N 360 9,1 C 0,0 km/h (0 Bft)
20.08.2015 08:15 11,3 C 11,9 C 87 % 1016,3 hPa 0,0 mm 0,3 km/h (0 Bft) N-NW 337 9,2 C 0,0 km/h (0 Bft)
20.08.2015 08:20 11,4 C 12,1 C 87 % 1016,3 hPa 0,0 mm 0,0 km/h (0 Bft) NW 315 9,3 C 0,0 km/h (0 Bft)
20.08.2015 08:25 11,5 C 12,3 C 87 % 1016,3 hPa 0,0 mm 0,0 km/h (0 Bft) N-NW 337 9,4 C 0,0 km/h (0 Bft)
20.08.2015 08:30 11,6 C 12,6 C 87 % 1016,3 hPa 0,0 mm 0,0 km/h (0 Bft) NO 45 9,5 C 0,0 km/h (0 Bft)
20.08.2015 08:35 11,8 C 12,8 C 87 % 1016,5 hPa 0,0 mm 0,0 km/h (0 Bft) O-SO 112 9,7 C 0,0 km/h (0 Bft)
20.08.2015 08:40 11,9 C 13,2 C 87 % 1016,5 hPa 0,0 mm 0,0 km/h (0 Bft) NW 315 9,8 C 0,0 km/h (0 Bft)
20.08.2015 08:45 12,1 C 13,6 C 87 % 1016,5 hPa 0,0 mm 0,0 km/h (0 Bft) O-NO 67 10,0 C 0,0 km/h (0 Bft)
20.08.2015 08:50 12,3 C 14,0 C 87 % 1016,5 hPa 0,0 mm 0,0 km/h (0 Bft) N-NO 22 10,2 C 0,0 km/h (0 Bft)
20.08.2015 08:55 12,5 C 14,3 C 87 % 1016,5 hPa 0,0 mm 0,0 km/h (0 Bft) NO 45 10,4 C 0,0 km/h (0 Bft)
20.08.2015 09:00 12,6 C 14,6 C 86 % 1016,5 hPa 0,0 mm 0,0 km/h (0 Bft) O-NO 67 10,3 C 0,0 km/h (0 Bft)
20.08.2015 09:05 12,7 C 14,9 C 86 % 1016,5 hPa 0,0 mm 0,0 km/h (0 Bft) N-NO 22 10,4 C 0,0 km/h (0 Bft)
20.08.2015 09:10 12,9 C 15,1 C 86 % 1016,5 hPa 0,0 mm 0,0 km/h (0 Bft) N 360 10,6 C 0,0 km/h (0 Bft)
20.08.2015 09:15 13,0 C 15,3 C 86 % 1016,5 hPa 0,0 mm 0,0 km/h (0 Bft) O-SO 112 10,7 C 0,0 km/h (0 Bft)
20.08.2015 09:20 13,2 C 15,8 C 86 % 1016,5 hPa 0,0 mm 0,0 km/h (0 Bft) N 360 10,9 C 0,0 km/h (0 Bft)
20.08.2015 09:25 13,5 C 16,1 C 85 % 1016,5 hPa 0,0 mm 0,3 km/h (0 Bft) W 270 11,0 C 4,4 km/h (1 Bft)
20.08.2015 09:30 13,5 C 16,3 C 85 % 1016,5 hPa 0,0 mm 0,5 km/h (0 Bft) W-NW 292 11,0 C 0,0 km/h (0 Bft)
20.08.2015 09:35 13,6 C 16,3 C 85 % 1016,5 hPa 0,0 mm 0,5 km/h (0 Bft) NW 315 11,1 C 0,0 km/h (0 Bft)
20.08.2015 09:40 13,7 C 16,5 C 84 % 1016,5 hPa 0,0 mm 0,5 km/h (0 Bft) SO 135 11,0 C 0,0 km/h (0 Bft)
20.08.2015 09:45 13,7 C 16,6 C 84 % 1016,5 hPa 0,0 mm 0,5 km/h (0 Bft) N-NW 337 11,0 C 0,0 km/h (0 Bft)
20.08.2015 09:50 13,7 C 16,6 C 84 % 1016,5 hPa 0,0 mm 1,8 km/h (1 Bft) NW 315 11,0 C 5,2 km/h (1 Bft)
20.08.2015 09:55 13,8 C 16,4 C 84 % 1016,7 hPa 0,0 mm 2,6 km/h (1 Bft) W 270 11,1 C 3,9 km/h (1 Bft)
20.08.2015 10:00 13,9 C 16,3 C 83 % 1016,7 hPa 0,0 mm 2,3 km/h (1 Bft) N-NW 337 11,1 C 2,8 km/h (1 Bft)
20.08.2015 10:05 13,9 C 16,3 C 83 % 1016,7 hPa 0,0 mm 2,1 km/h (1 Bft) N-NO 22 11,1 C 0,0 km/h (0 Bft)
20.08.2015 10:10 14,1 C 16,4 C 83 % 1016,7 hPa 0,0 mm 2,3 km/h (1 Bft) W-NW 292 11,3 C 5,7 km/h (1 Bft)
20.08.2015 10:15 14,1 C 16,5 C 82 % 1016,9 hPa 0,0 mm 2,1 km/h (1 Bft) W 270 11,1 C 0,0 km/h (0 Bft)
20.08.2015 10:20 14,3 C 16,8 C 82 % 1016,9 hPa 0,0 mm 1,6 km/h (1 Bft) N-NW 337 11,3 C 0,0 km/h (0 Bft)
20.08.2015 10:25 14,2 C 16,9 C 81 % 1016,9 hPa 0,0 mm 0,5 km/h (0 Bft) N-NO 22 11,0 C 0,0 km/h (0 Bft)
20.08.2015 10:30 14,3 C 17,4 C 81 % 1016,9 hPa 0,0 mm 0,0 km/h (0 Bft) O 90 11,1 C 0,0 km/h (0 Bft)
20.08.2015 10:35 14,4 C 17,8 C 80 % 1016,8 hPa 0,0 mm 0,0 km/h (0 Bft) O-SO 112 11,0 C 0,0 km/h (0 Bft)
20.08.2015 10:40 14,7 C 18,2 C 80 % 1016,8 hPa 0,0 mm 0,0 km/h (0 Bft) N-NO 22 11,3 C 0,0 km/h (0 Bft)
20.08.2015 10:45 15,0 C 18,4 C 79 % 1016,8 hPa 0,0 mm 0,3 km/h (0 Bft) N-NO 22 11,4 C 3,4 km/h (1 Bft)
20.08.2015 10:50 14,9 C 18,1 C 79 % 1016,8 hPa 0,0 mm 2,1 km/h (1 Bft) O-NO 67 11,3 C 2,8 km/h (1 Bft)
20.08.2015 10:55 14,9 C 18,0 C 78 % 1017,2 hPa 0,0 mm 2,3 km/h (1 Bft) N 360 11,1 C 4,4 km/h (1 Bft)
20.08.2015 11:00 14,9 C 18,1 C 78 % 1017,2 hPa 0,0 mm 0,8 km/h (0 Bft) NO 45 11,1 C 0,0 km/h (0 Bft)
20.08.2015 11:05 15,0 C 18,3 C 78 % 1017,2 hPa 0,0 mm 0,8 km/h (0 Bft) N-NO 22 11,2 C 0,0 km/h (0 Bft)
20.08.2015 11:10 15,1 C 18,8 C 77 % 1017,2 hPa 0,0 mm 0,0 km/h (0 Bft) SO 135 11,1 C 0,0 km/h (0 Bft)
20.08.2015 11:15 15,1 C 19,0 C 76 % 1017,1 hPa 0,0 mm 0,0 km/h (0 Bft) O-SO 112 10,9 C 0,0 km/h (0 Bft)
20.08.2015 11:20 15,3 C 19,5 C 76 % 1017,1 hPa 0,0 mm 0,0 km/h (0 Bft) O 90 11,1 C 0,0 km/h (0 Bft)
20.08.2015 11:25 15,5 C 19,7 C 76 % 1017,1 hPa 0,0 mm 0,0 km/h (0 Bft) NO 45 11,3 C 2,8 km/h (1 Bft)
20.08.2015 11:30 15,6 C 19,6 C 76 % 1017,1 hPa 0,0 mm 1,0 km/h (0 Bft) NO 45 11,4 C 2,6 km/h (1 Bft)
20.08.2015 11:35 15,6 C 19,8 C 76 % 1017,0 hPa 0,0 mm 1,0 km/h (0 Bft) W-NW 292 11,4 C 0,0 km/h (0 Bft)
20.08.2015 11:40 15,8 C 20,4 C 76 % 1017,0 hPa 0,0 mm 0,3 km/h (0 Bft) S-SO 157 11,6 C 0,0 km/h (0 Bft)
20.08.2015 11:45 16,1 C 20,6 C 75 % 1017,0 hPa 0,0 mm 0,5 km/h (0 Bft) O-NO 67 11,7 C 3,9 km/h (1 Bft)
20.08.2015 11:46 16,2 C 20,6 C 74 % 1017,0 hPa 0,0 mm 2,1 km/h (1 Bft) N 360 11,6 C 0,0 km/h (0 Bft)
20.08.2015 11:47 16,2 C 20,6 C 74 % 1017,0 hPa 0,0 mm 2,1 km/h (1 Bft) N 360 11,6 C 0,0 km/h (0 Bft)
20.08.2015 11:50 16,2 C 20,6 C 74 % 1017,0 hPa 0,0 mm 2,1 km/h (1 Bft) N 360 11,6 C 0,0 km/h (0 Bft)
20.08.2015 11:55 16,3 C 20,6 C 73 % 1016,9 hPa 0,0 mm 2,8 km/h (1 Bft) N-NW 337 11,4 C 3,6 km/h (1 Bft)
20.08.2015 12:00 16,5 C 20,6 C 73 % 1016,9 hPa 0,0 mm 2,8 km/h (1 Bft) NW 315 11,6 C 3,9 km/h (1 Bft)
20.08.2015 12:05 16,5 C 20,8 C 73 % 1016,9 hPa 0,0 mm 3,1 km/h (1 Bft) NW 315 11,6 C 4,9 km/h (1 Bft)
20.08.2015 12:10 16,5 C 20,6 C 73 % 1016,9 hPa 0,0 mm 2,3 km/h (1 Bft) O-NO 67 11,6 C 0,0 km/h (0 Bft)
20.08.2015 12:15 16,7 C 20,9 C 73 % 1017,1 hPa 0,0 mm 1,0 km/h (0 Bft) O-NO 67 11,8 C 0,0 km/h (0 Bft)
20.08.2015 12:20 16,7 C 21,1 C 71 % 1017,1 hPa 0,0 mm 0,8 km/h (0 Bft) O 90 11,4 C 3,1 km/h (1 Bft)
20.08.2015 12:25 16,6 C 20,9 C 71 % 1017,1 hPa 0,0 mm 1,3 km/h (1 Bft) N-NO 22 11,3 C 0,0 km/h (0 Bft)
20.08.2015 12:30 16,8 C 21,0 C 71 % 1017,1 hPa 0,0 mm 1,0 km/h (0 Bft) NW 315 11,5 C 7,3 km/h (2 Bft)
20.08.2015 12:35 17,0 C 20,9 C 71 % 1017,1 hPa 0,0 mm 1,8 km/h (1 Bft) NW 315 11,7 C 0,0 km/h (0 Bft)
20.08.2015 12:40 17,2 C 20,6 C 71 % 1017,1 hPa 0,0 mm 3,9 km/h (1 Bft) NW 315 11,9 C 3,9 km/h (1 Bft)
20.08.2015 12:45 17,1 C 20,6 C 70 % 1017,1 hPa 0,0 mm 3,4 km/h (1 Bft) SO 135 11,6 C 7,0 km/h (2 Bft)
20.08.2015 12:50 16,8 C 20,5 C 71 % 1017,1 hPa 0,0 mm 1,8 km/h (1 Bft) SO 135 11,5 C 2,8 km/h (1 Bft)
20.08.2015 12:55 16,9 C 20,6 C 70 % 1017,2 hPa 0,0 mm 1,3 km/h (1 Bft) SO 135 11,4 C 0,0 km/h (0 Bft)
20.08.2015 13:00 16,8 C 20,9 C 70 % 1017,2 hPa 0,0 mm 0,5 km/h (0 Bft) S 180 11,3 C 2,6 km/h (1 Bft)
20.08.2015 13:05 16,7 C 21,0 C 70 % 1017,2 hPa 0,0 mm 0,0 km/h (0 Bft) S 180 11,2 C 0,0 km/h (0 Bft)
20.08.2015 13:10 17,2 C 21,2 C 71 % 1017,2 hPa 0,0 mm 0,3 km/h (0 Bft) O-NO 67 11,9 C 0,0 km/h (0 Bft)
20.08.2015 13:15 17,2 C 21,1 C 70 % 1017,4 hPa 0,0 mm 0,8 km/h (0 Bft) N-NW 337 11,7 C 3,9 km/h (1 Bft)
20.08.2015 13:20 17,3 C 20,9 C 70 % 1017,4 hPa 0,0 mm 2,1 km/h (1 Bft) O-SO 112 11,8 C 4,7 km/h (1 Bft)
20.08.2015 13:25 17,1 C 20,6 C 68 % 1017,4 hPa 0,0 mm 2,3 km/h (1 Bft) O 90 11,1 C 0,0 km/h (0 Bft)
20.08.2015 13:30 17,0 C 20,5 C 68 % 1017,4 hPa 0,0 mm 1,8 km/h (1 Bft) SO 135 11,0 C 3,4 km/h (1 Bft)
20.08.2015 13:35 17,0 C 20,5 C 68 % 1017,4 hPa 0,0 mm 0,8 km/h (0 Bft) SO 135 11,0 C 0,0 km/h (0 Bft)
20.08.2015 13:40 17,1 C 20,8 C 68 % 1017,4 hPa 0,0 mm 1,8 km/h (1 Bft) W 270 11,1 C 6,5 km/h (2 Bft)
20.08.2015 13:45 17,2 C 20,7 C 68 % 1017,4 hPa 0,0 mm 3,1 km/h (1 Bft) W-NW 292 11,2 C 3,6 km/h (1 Bft)
20.08.2015 13:50 17,5 C 21,1 C 68 % 1017,4 hPa 0,0 mm 2,1 km/h (1 Bft) W 270 11,5 C 0,0 km/h (0 Bft)
20.08.2015 13:55 17,4 C 21,6 C 68 % 1017,4 hPa 0,0 mm 0,5 km/h (0 Bft) W 270 11,4 C 0,0 km/h (0 Bft)
20.08.2015 14:00 17,8 C 22,1 C 68 % 1017,4 hPa 0,0 mm 0,3 km/h (0 Bft) W 270 11,8 C 0,0 km/h (0 Bft)
20.08.2015 14:05 17,8 C 22,1 C 68 % 1017,4 hPa 0,0 mm 0,8 km/h (0 Bft) N-NW 337 11,8 C 0,0 km/h (0 Bft)
20.08.2015 14:10 17,9 C 21,9 C 68 % 1017,4 hPa 0,0 mm 1,3 km/h (1 Bft) N-NO 22 11,9 C 0,0 km/h (0 Bft)
20.08.2015 14:15 17,9 C 21,9 C 68 % 1017,4 hPa 0,0 mm 1,3 km/h (1 Bft) O-NO 67 11,9 C 4,7 km/h (1 Bft)
20.08.2015 14:20 17,6 C 21,3 C 67 % 1017,4 hPa 0,0 mm 2,6 km/h (1 Bft) O-SO 112 11,4 C 0,0 km/h (0 Bft)
20.08.2015 14:25 17,6 C 21,1 C 68 % 1017,4 hPa 0,0 mm 2,1 km/h (1 Bft) O-NO 67 11,6 C 0,0 km/h (0 Bft)
20.08.2015 14:30 17,3 C 20,3 C 68 % 1017,4 hPa 0,0 mm 2,3 km/h (1 Bft) N-NO 22 11,3 C 5,7 km/h (1 Bft)
20.08.2015 14:35 17,0 C 19,1 C 68 % 1017,5 hPa 0,0 mm 6,2 km/h (2 Bft) N-NO 22 11,0 C 12,2 km/h (2 Bft)
20.08.2015 14:40 16,4 C 17,7 C 70 % 1017,5 hPa 0,0 mm 8,3 km/h (2 Bft) W 270 10,9 C 17,3 km/h (3 Bft)
20.08.2015 14:45 16,2 C 17,1 C 70 % 1017,5 hPa 0,0 mm 8,0 km/h (2 Bft) NW 315 10,7 C 10,4 km/h (2 Bft)
20.08.2015 14:50 16,1 C 16,6 C 70 % 1017,5 hPa 0,0 mm 6,7 km/h (2 Bft) NW 315 10,6 C 2,6 km/h (1 Bft)
20.08.2015 14:55 16,0 C 16,5 C 71 % 1017,6 hPa 0,0 mm 5,7 km/h (1 Bft) N-NW 337 10,7 C 12,9 km/h (3 Bft)
20.08.2015 15:00 16,0 C 16,5 C 72 % 1017,6 hPa 0,0 mm 4,4 km/h (1 Bft) NW 315 11,0 C 4,9 km/h (1 Bft)
20.08.2015 15:05 16,1 C 16,6 C 72 % 1017,6 hPa 0,0 mm 4,1 km/h (1 Bft) N-NW 337 11,0 C 4,9 km/h (1 Bft)
20.08.2015 15:10 16,1 C 16,7 C 72 % 1017,6 hPa 0,0 mm 4,9 km/h (1 Bft) N-NW 337 11,0 C 8,3 km/h (2 Bft)
20.08.2015 15:15 16,0 C 16,7 C 72 % 1017,6 hPa 0,0 mm 5,2 km/h (1 Bft) NW 315 11,0 C 7,0 km/h (2 Bft)
20.08.2015 15:20 16,0 C 16,8 C 72 % 1017,6 hPa 0,0 mm 4,4 km/h (1 Bft) N-NW 337 11,0 C 8,5 km/h (2 Bft)
20.08.2015 15:25 16,0 C 16,8 C 72 % 1017,6 hPa 0,0 mm 4,7 km/h (1 Bft) N-NW 337 11,0 C 5,7 km/h (1 Bft)
20.08.2015 15:30 15,9 C 16,7 C 73 % 1017,6 hPa 0,0 mm 5,4 km/h (1 Bft) NW 315 11,1 C 7,0 km/h (2 Bft)
20.08.2015 15:35 15,9 C 16,6 C 73 % 1017,5 hPa 0,0 mm 4,7 km/h (1 Bft) N-NW 337 11,1 C 3,4 km/h (1 Bft)
20.08.2015 15:40 15,9 C 16,6 C 74 % 1017,5 hPa 0,0 mm 2,8 km/h (1 Bft) W 270 11,3 C 3,6 km/h (1 Bft)
20.08.2015 15:45 15,8 C 16,6 C 74 % 1017,5 hPa 0,0 mm 2,6 km/h (1 Bft) NW 315 11,2 C 3,1 km/h (1 Bft)
20.08.2015 15:50 15,8 C 16,5 C 74 % 1017,5 hPa 0,0 mm 3,6 km/h (1 Bft) NW 315 11,2 C 7,3 km/h (2 Bft)
20.08.2015 15:55 15,7 C 16,3 C 73 % 1017,4 hPa 0,0 mm 3,1 km/h (1 Bft) NW 315 10,9 C 7,8 km/h (2 Bft)
20.08.2015 16:00 15,7 C 16,3 C 73 % 1017,4 hPa 0,0 mm 2,8 km/h (1 Bft) N-NW 337 10,9 C 2,8 km/h (1 Bft)
20.08.2015 16:05 15,7 C 16,3 C 73 % 1017,4 hPa 0,0 mm 2,1 km/h (1 Bft) N-NO 22 10,9 C 0,0 km/h (0 Bft)
20.08.2015 16:10 15,7 C 16,3 C 73 % 1017,4 hPa 0,0 mm 1,0 km/h (0 Bft) NW 315 10,9 C 0,0 km/h (0 Bft)
20.08.2015 16:15 15,7 C 16,3 C 73 % 1017,6 hPa 0,0 mm 0,5 km/h (0 Bft) N 360 10,9 C 0,0 km/h (0 Bft)
20.08.2015 16:20 15,7 C 16,3 C 73 % 1017,6 hPa 0,0 mm 0,5 km/h (0 Bft) O-NO 67 10,9 C 0,0 km/h (0 Bft)
20.08.2015 16:25 15,6 C 16,2 C 73 % 1017,6 hPa 0,0 mm 0,8 km/h (0 Bft) N-NW 337 10,8 C 0,0 km/h (0 Bft)
20.08.2015 16:30 15,4 C 16,1 C 73 % 1017,6 hPa 0,0 mm 0,8 km/h (0 Bft) O-SO 112 10,6 C 0,0 km/h (0 Bft)
20.08.2015 16:35 15,3 C 16,0 C 74 % 1017,6 hPa 0,0 mm 0,5 km/h (0 Bft) O-SO 112 10,7 C 0,0 km/h (0 Bft)
20.08.2015 16:40 15,1 C 16,0 C 74 % 1017,6 hPa 0,0 mm 0,0 km/h (0 Bft) O-SO 112 10,5 C 0,0 km/h (0 Bft)
20.08.2015 16:45 15,1 C 15,9 C 74 % 1017,6 hPa 0,0 mm 0,0 km/h (0 Bft) O-SO 112 10,5 C 0,0 km/h (0 Bft)
20.08.2015 16:50 15,2 C 15,8 C 75 % 1017,6 hPa 0,0 mm 0,0 km/h (0 Bft) O-SO 112 10,8 C 0,0 km/h (0 Bft)
20.08.2015 16:55 15,1 C 15,7 C 75 % 1017,6 hPa 0,0 mm 0,0 km/h (0 Bft) O-SO 112 10,7 C 0,0 km/h (0 Bft)
20.08.2015 17:00 15,0 C 15,5 C 75 % 1017,6 hPa 0,0 mm 1,3 km/h (1 Bft) S-SW 202 10,6 C 8,3 km/h (2 Bft)
20.08.2015 17:05 14,8 C 15,2 C 76 % 1017,6 hPa 0,0 mm 3,9 km/h (1 Bft) S-SW 202 10,6 C 3,9 km/h (1 Bft)
20.08.2015 17:10 14,5 C 14,7 C 77 % 1017,6 hPa 0,0 mm 5,7 km/h (1 Bft) W-SW 247 10,5 C 0,0 km/h (0 Bft)
20.08.2015 17:15 14,5 C 14,5 C 77 % 1017,6 hPa 0,0 mm 2,6 km/h (1 Bft) SW 225 10,5 C 0,0 km/h (0 Bft)
20.08.2015 17:20 14,4 C 14,3 C 78 % 1017,6 hPa 0,7 mm 0,5 km/h (0 Bft) W-NW 292 10,6 C 4,9 km/h (1 Bft)
20.08.2015 17:25 14,2 C 14,0 C 78 % 1017,6 hPa 0,0 mm 1,3 km/h (1 Bft) W-NW 292 10,4 C 0,0 km/h (0 Bft)
20.08.2015 17:30 14,1 C 13,9 C 79 % 1017,6 hPa 0,0 mm 1,6 km/h (1 Bft) W-NW 292 10,5 C 0,0 km/h (0 Bft)
20.08.2015 17:35 14,1 C 13,8 C 79 % 1017,6 hPa 0,0 mm 0,5 km/h (0 Bft) W-NW 292 10,5 C 3,1 km/h (1 Bft)
20.08.2015 17:40 13,8 C 13,6 C 80 % 1017,6 hPa 0,0 mm 1,3 km/h (1 Bft) W 270 10,4 C 0,0 km/h (0 Bft)
20.08.2015 17:45 13,7 C 13,5 C 80 % 1017,6 hPa 0,7 mm 1,6 km/h (1 Bft) W-SW 247 10,3 C 4,9 km/h (1 Bft)
20.08.2015 17:46 13,4 C 13,2 C 81 % 1017,6 hPa 0,7 mm 2,6 km/h (1 Bft) W 270 10,2 C 3,6 km/h (1 Bft)
20.08.2015 17:48 13,4 C 13,2 C 81 % 1017,6 hPa 0,0 mm 2,6 km/h (1 Bft) W 270 10,2 C 3,6 km/h (1 Bft)
20.08.2015 17:50 13,4 C 13,2 C 81 % 1017,6 hPa 0,0 mm 2,6 km/h (1 Bft) W 270 10,2 C 3,6 km/h (1 Bft)
20.08.2015 17:55 13,2 C 13,0 C 81 % 1017,7 hPa 0,0 mm 3,6 km/h (1 Bft) W-SW 247 10,0 C 4,4 km/h (1 Bft)
20.08.2015 18:00 13,2 C 13,0 C 81 % 1017,7 hPa 0,0 mm 1,6 km/h (1 Bft) S-SW 202 10,0 C 0,0 km/h (0 Bft)
20.08.2015 18:05 13,1 C 12,9 C 82 % 1017,7 hPa 0,7 mm 0,5 km/h (0 Bft) SW 225 10,1 C 0,0 km/h (0 Bft)
20.08.2015 18:10 13,0 C 12,8 C 82 % 1017,7 hPa 0,0 mm 1,8 km/h (1 Bft) SW 225 10,0 C 5,7 km/h (1 Bft)
20.08.2015 18:15 12,9 C 12,7 C 83 % 1017,8 hPa 0,7 mm 2,1 km/h (1 Bft) S-SO 157 10,1 C 0,0 km/h (0 Bft)
20.08.2015 18:20 12,9 C 12,7 C 84 % 1017,8 hPa 0,0 mm 1,0 km/h (0 Bft) S 180 10,3 C 0,0 km/h (0 Bft)
20.08.2015 18:25 12,9 C 12,7 C 84 % 1017,8 hPa 0,0 mm 0,3 km/h (0 Bft) SW 225 10,3 C 2,8 km/h (1 Bft)
20.08.2015 18:30 12,8 C 12,6 C 84 % 1017,8 hPa 0,0 mm 0,5 km/h (0 Bft) S-SW 202 10,2 C 0,0 km/h (0 Bft)
20.08.2015 18:35 12,7 C 12,6 C 85 % 1017,9 hPa 0,0 mm 0,8 km/h (0 Bft) S-SO 157 10,2 C 0,0 km/h (0 Bft)
20.08.2015 18:40 12,6 C 12,5 C 85 % 1017,9 hPa 0,7 mm 0,3 km/h (0 Bft) S-SO 157 10,1 C 2,8 km/h (1 Bft)
20.08.2015 18:45 12,6 C 12,5 C 86 % 1017,9 hPa 0,0 mm 0,3 km/h (0 Bft) S 180 10,3 C 0,0 km/h (0 Bft)
20.08.2015 18:50 12,5 C 12,4 C 86 % 1017,9 hPa 0,0 mm 0,3 km/h (0 Bft) SO 135 10,2 C 0,0 km/h (0 Bft)
20.08.2015 18:55 12,5 C 12,4 C 86 % 1018,1 hPa 0,0 mm 0,0 km/h (0 Bft) S 180 10,2 C 0,0 km/h (0 Bft)
20.08.2015 19:00 12,4 C 12,3 C 86 % 1018,1 hPa 0,7 mm 1,0 km/h (0 Bft) SW 225 10,1 C 2,8 km/h (1 Bft)
20.08.2015 19:05 12,4 C 12,3 C 86 % 1018,1 hPa 0,7 mm 1,3 km/h (1 Bft) W-SW 247 10,1 C 2,6 km/h (1 Bft)
20.08.2015 19:10 12,3 C 12,3 C 85 % 1018,1 hPa 0,0 mm 0,8 km/h (0 Bft) W-SW 247 9,9 C 0,0 km/h (0 Bft)
20.08.2015 19:15 12,4 C 12,3 C 87 % 1018,2 hPa 0,0 mm 0,3 km/h (0 Bft) W 270 10,3 C 0,0 km/h (0 Bft)
20.08.2015 19:20 12,4 C 12,4 C 85 % 1018,2 hPa 0,0 mm 0,3 km/h (0 Bft) S-SW 202 9,9 C 0,0 km/h (0 Bft)
20.08.2015 19:25 12,4 C 12,4 C 85 % 1018,2 hPa 0,0 mm 0,0 km/h (0 Bft) S-SW 202 9,9 C 0,0 km/h (0 Bft)
20.08.2015 19:30 12,4 C 12,3 C 87 % 1018,2 hPa 0,7 mm 0,0 km/h (0 Bft) S-SW 202 10,3 C 0,0 km/h (0 Bft)
20.08.2015 19:35 12,4 C 12,3 C 88 % 1018,1 hPa 0,0 mm 0,0 km/h (0 Bft) S 180 10,5 C 0,0 km/h (0 Bft)
20.08.2015 19:40 12,3 C 12,2 C 88 % 1018,1 hPa 0,0 mm 0,5 km/h (0 Bft) SO 135 10,4 C 0,0 km/h (0 Bft)
20.08.2015 19:45 12,3 C 12,3 C 86 % 1018,1 hPa 0,0 mm 0,5 km/h (0 Bft) O-SO 112 10,0 C 0,0 km/h (0 Bft)
20.08.2015 19:50 12,3 C 12,3 C 86 % 1018,1 hPa 0,0 mm 0,0 km/h (0 Bft) O-SO 112 10,0 C 0,0 km/h (0 Bft)
20.08.2015 19:55 12,4 C 12,5 C 86 % 1018,1 hPa 0,0 mm 0,0 km/h (0 Bft) O-NO 67 10,1 C 0,0 km/h (0 Bft)
20.08.2015 20:00 12,4 C 12,6 C 86 % 1018,1 hPa 0,7 mm 0,0 km/h (0 Bft) W-SW 247 10,1 C 0,0 km/h (0 Bft)
20.08.2015 20:05 12,3 C 12,4 C 86 % 1018,1 hPa 0,0 mm 0,0 km/h (0 Bft) SW 225 10,0 C 0,0 km/h (0 Bft)
20.08.2015 20:10 12,2 C 12,3 C 86 % 1018,1 hPa 0,0 mm 0,0 km/h (0 Bft) S 180 9,9 C 0,0 km/h (0 Bft)
20.08.2015 20:15 12,2 C 12,2 C 86 % 1018,1 hPa 0,0 mm 0,0 km/h (0 Bft) S 180 9,9 C 0,0 km/h (0 Bft)
20.08.2015 20:20 12,1 C 12,0 C 88 % 1018,1 hPa 0,0 mm 0,0 km/h (0 Bft) S 180 10,2 C 0,0 km/h (0 Bft)
20.08.2015 20:25 12,0 C 11,9 C 88 % 1018,1 hPa 0,0 mm 0,0 km/h (0 Bft) S 180 10,1 C 0,0 km/h (0 Bft)
20.08.2015 20:30 11,8 C 11,7 C 88 % 1018,1 hPa 0,0 mm 0,0 km/h (0 Bft) S 180 9,9 C 0,0 km/h (0 Bft)
20.08.2015 20:35 11,7 C 11,5 C 88 % 1018,2 hPa 0,0 mm 0,0 km/h (0 Bft) S 180 9,8 C 0,0 km/h (0 Bft)
20.08.2015 20:40 11,4 C 11,2 C 88 % 1018,2 hPa 0,0 mm 0,0 km/h (0 Bft) S 180 9,5 C 0,0 km/h (0 Bft)
20.08.2015 20:45 11,1 C 11,0 C 88 % 1018,2 hPa 0,0 mm 0,0 km/h (0 Bft) S 180 9,2 C 0,0 km/h (0 Bft)
20.08.2015 20:50 10,9 C 10,7 C 88 % 1018,2 hPa 0,0 mm 0,0 km/h (0 Bft) S 180 9,0 C 0,0 km/h (0 Bft)
20.08.2015 20:55 10,6 C 10,5 C 88 % 1018,2 hPa 0,0 mm 0,0 km/h (0 Bft) S 180 8,7 C 0,0 km/h (0 Bft)
20.08.2015 21:00 10,8 C 10,6 C 88 % 1018,2 hPa 0,0 mm 0,0 km/h (0 Bft) S 180 8,9 C 0,0 km/h (0 Bft)
20.08.2015 21:05 10,8 C 10,5 C 88 % 1018,2 hPa 0,0 mm 0,0 km/h (0 Bft) S 180 8,9 C 0,0 km/h (0 Bft)
20.08.2015 21:10 10,4 C 10,2 C 88 % 1018,2 hPa 0,0 mm 0,0 km/h (0 Bft) SW 225 8,5 C 0,0 km/h (0 Bft)
20.08.2015 21:15 10,3 C 10,1 C 88 % 1018,2 hPa 0,0 mm 0,0 km/h (0 Bft) S-SW 202 8,4 C 0,0 km/h (0 Bft)
20.08.2015 21:20 10,1 C 9,9 C 88 % 1018,2 hPa 0,0 mm 0,0 km/h (0 Bft) W 270 8,2 C 0,0 km/h (0 Bft)
20.08.2015 21:25 10,2 C 10,0 C 88 % 1018,2 hPa 0,0 mm 0,0 km/h (0 Bft) W 270 8,3 C 0,0 km/h (0 Bft)
20.08.2015 21:30 10,0 C 9,8 C 88 % 1018,2 hPa 0,0 mm 0,0 km/h (0 Bft) W-SW 247 8,1 C 0,0 km/h (0 Bft)
20.08.2015 21:35 10,1 C 9,9 C 89 % 1018,4 hPa 0,0 mm 0,0 km/h (0 Bft) S 180 8,4 C 0,0 km/h (0 Bft)
20.08.2015 21:40 10,2 C 10,0 C 89 % 1018,4 hPa 0,0 mm 0,0 km/h (0 Bft) S 180 8,5 C 0,0 km/h (0 Bft)
20.08.2015 21:45 10,5 C 10,2 C 89 % 1018,4 hPa 0,0 mm 0,0 km/h (0 Bft) S 180 8,8 C 0,0 km/h (0 Bft)
20.08.2015 21:50 10,0 C 9,8 C 89 % 1018,4 hPa 0,0 mm 0,0 km/h (0 Bft) W-SW 247 8,3 C 0,0 km/h (0 Bft)
20.08.2015 21:55 9,9 C 9,7 C 89 % 1018,4 hPa 0,0 mm 0,0 km/h (0 Bft) W-NW 292 8,2 C 0,0 km/h (0 Bft)
20.08.2015 22:00 9,8 C 9,6 C 89 % 1018,4 hPa 0,0 mm 0,0 km/h (0 Bft) NW 315 8,1 C 0,0 km/h (0 Bft)
20.08.2015 22:05 9,7 C 9,5 C 89 % 1018,4 hPa 0,0 mm 0,0 km/h (0 Bft) NW 315 8,0 C 0,0 km/h (0 Bft)
20.08.2015 22:10 9,4 C 9,4 C 89 % 1018,4 hPa 0,0 mm 0,0 km/h (0 Bft) NW 315 7,7 C 0,0 km/h (0 Bft)
20.08.2015 22:15 9,5 C 9,4 C 89 % 1018,4 hPa 0,0 mm 0,0 km/h (0 Bft) S-SW 202 7,8 C 0,0 km/h (0 Bft)
20.08.2015 22:20 9,4 C 9,3 C 89 % 1018,4 hPa 0,0 mm 0,0 km/h (0 Bft) W 270 7,7 C 0,0 km/h (0 Bft)
20.08.2015 22:25 9,4 C 9,3 C 89 % 1018,4 hPa 0,0 mm 0,0 km/h (0 Bft) W-NW 292 7,7 C 0,0 km/h (0 Bft)
20.08.2015 22:30 9,5 C 9,3 C 89 % 1018,4 hPa 0,0 mm 0,0 km/h (0 Bft) W-SW 247 7,8 C 0,0 km/h (0 Bft)
20.08.2015 22:35 9,4 C 9,2 C 89 % 1018,4 hPa 0,0 mm 0,0 km/h (0 Bft) W 270 7,7 C 0,0 km/h (0 Bft)
20.08.2015 22:40 9,3 C 9,1 C 89 % 1018,4 hPa 0,0 mm 0,0 km/h (0 Bft) W 270 7,6 C 0,0 km/h (0 Bft)
20.08.2015 22:45 9,2 C 9,0 C 89 % 1018,4 hPa 0,0 mm 0,0 km/h (0 Bft) NW 315 7,5 C 0,0 km/h (0 Bft)
20.08.2015 22:50 9,3 C 9,1 C 90 % 1018,4 hPa 0,0 mm 0,0 km/h (0 Bft) W-NW 292 7,7 C 0,0 km/h (0 Bft)
20.08.2015 22:55 9,7 C 9,4 C 90 % 1018,3 hPa 0,0 mm 0,5 km/h (0 Bft) W 270 8,1 C 3,4 km/h (1 Bft)
20.08.2015 23:00 9,6 C 9,5 C 90 % 1018,3 hPa 0,0 mm 1,0 km/h (0 Bft) W-SW 247 8,0 C 0,0 km/h (0 Bft)
20.08.2015 23:05 9,6 C 9,4 C 90 % 1018,3 hPa 0,0 mm 0,8 km/h (0 Bft) W-SW 247 8,0 C 3,6 km/h (1 Bft)
20.08.2015 23:10 9,5 C 9,4 C 90 % 1018,3 hPa 0,0 mm 0,3 km/h (0 Bft) S 180 7,9 C 0,0 km/h (0 Bft)
20.08.2015 23:15 9,3 C 9,2 C 90 % 1018,2 hPa 0,0 mm 0,3 km/h (0 Bft) W-SW 247 7,7 C 0,0 km/h (0 Bft)
20.08.2015 23:20 9,4 C 9,3 C 90 % 1018,2 hPa 0,0 mm 0,0 km/h (0 Bft) S 180 7,8 C 0,0 km/h (0 Bft)
20.08.2015 23:25 9,1 C 9,0 C 90 % 1018,2 hPa 0,0 mm 0,0 km/h (0 Bft) S 180 7,5 C 0,0 km/h (0 Bft)
20.08.2015 23:30 9,0 C 8,9 C 90 % 1018,2 hPa 0,0 mm 0,0 km/h (0 Bft) W-NW 292 7,4 C 0,0 km/h (0 Bft)
20.08.2015 23:35 9,2 C 9,0 C 90 % 1018,2 hPa 0,0 mm 0,0 km/h (0 Bft) W-NW 292 7,6 C 0,0 km/h (0 Bft)
20.08.2015 23:40 9,0 C 8,9 C 90 % 1018,2 hPa 0,0 mm 0,0 km/h (0 Bft) N-NO 22 7,4 C 2,8 km/h (1 Bft)
20.08.2015 23:45 8,9 C 8,8 C 90 % 1018,2 hPa 0,0 mm 0,0 km/h (0 Bft) N-NO 22 7,4 C 0,0 km/h (0 Bft)
20.08.2015 23:46 8,6 C 8,5 C 90 % 1018,2 hPa 0,0 mm 0,0 km/h (0 Bft) NW 315 7,1 C 0,0 km/h (0 Bft)
20.08.2015 23:49 8,6 C 8,5 C 90 % 1018,2 hPa 0,0 mm 0,0 km/h (0 Bft) NW 315 7,1 C 0,0 km/h (0 Bft)
20.08.2015 23:50 8,6 C 8,5 C 90 % 1018,2 hPa 0,0 mm 0,0 km/h (0 Bft) NW 315 7,1 C 0,0 km/h (0 Bft)
20.08.2015 23:55 8,6 C 8,5 C 90 % 1018,2 hPa 0,0 mm 0,0 km/h (0 Bft) NW 315 7,1 C 0,0 km/h (0 Bft)
_ Min-Zeit 23:55 23:55 14:20 05:10 - 23:55 - - 23:55 23:55
Minimum _ 8,6 C 8,5 C 67 % 1015,5 hPa - 0,0 km/h (0 Bft) - - 7,1 C 0,0 km/h (0 Bft)
_ Max-Zeit 14:15 14:05 02:20 22:50 20:00 02:55 - - 14:15 14:40
Maximum _ 17,9 C 22,1 C 91 % 1018,4 hPa 0,7 mm 9,3 km/h
SW (2 Bft)
- - 11,9 C 17,3 km/h
W (3 Bft)
Durchschnitt _ 12,4 C 13,3 C 83 % 1017,0 hPa #6,9 mm 1,3 km/h (1 Bft) SW - 9,6 C 2,0 km/h (1 Bft)